Location: Ar Ranvel
(48.3000°N, 4.8833°W)
Time: 10:26:21
(UTC+00:00)

MetOp-B - Pass Details

Date: 16 June 2021
Orbit: 820 x 821 km, 98.7° (Epoch: 02 August)

Event Time Altitude Azimuth Distance (km) Brightness Sun altitude
Exits shadow 21:09:53 - 166° (SSE) 2,974 6.5 -6.6°
Reaches altitude 10° 21:11:19 10° 167° (SSE) 2,411 6.1 -6.8°
Maximum altitude 21:16:40 82° 255° (WSW) 836 4.3 -7.4°
Drops below altitude 10° 21:22:03 10° 344° (NNW) 2,429 7.8 -8.0°
Sets 21:24:25 0° 345° (NNW) 3,366 8.7 -8.2°
